Regional Weather Roundup
Issued by NWS

Home | Current Version | Previous Version | Text Only | Print | Product List | Glossary Off
Versions: 1 2 3 4 5 6 7 8 9 10 11 12 13 14 15 16 17 18 19 20 21 22 23 24 25 26 27 28 29 30 31 32 33 34 35 36 37 38 39 40 41 42 43 44 45 46 47 48 49 50

000
ASUS43 KOAX 281902
RWRNE

WEATHER ROUNDUP FOR NEBRASKA
NATIONAL WEATHER SERVICE OMAHA NE
200 PM CDT THU APR 28 2016

NOTES: SATELLITE DATA IS BEING USED TO AUGMENT CLOUD COVER ABOVE
       12000 FEET.
       "FAIR" INDICATES FEW OR NO CLOUDS BELOW 12,000 FEET WITH NO
       SIGNIFICANT WEATHER AND/OR OBSTRUCTIONS TO VISIBILITY.

  * THESE STATIONS DO NOT REPORT WEATHER SUCH AS RAIN...SNOW OR FOG.

NEZ001>004-019>022-054>056-282000-
NEBRASKA PANHANDLE

CITY           SKY/WX    TMP DP  RH WIND       PRES   REMARKS
SCOTTSBLUFF    CLOUDY    44  30  57 E8        30.01S
ALLIANCE       CLOUDY    40  29  64 N9        30.00S WCI  34
CHADRON        CLOUDY    42  33  70 N12       30.02F
KIMBALL        CLOUDY    40  29  64 NE8       29.99R
SIDNEY         CLOUDY    41  28  60 NE8       30.01S
$$

NEZ057>060-069>072-079>082-282000-
SOUTHWEST NEBRASKA

CITY           SKY/WX    TMP DP  RH WIND       PRES   REMARKS
NORTH PLATTE   CLOUDY    47  35  63 N7        30.00F
IMPERIAL       CLOUDY    46  30  53 NE5       30.02R
LEXINGTON      CLOUDY    48  39  70 N10       30.00S
MCCOOK         CLOUDY    52  35  52 VRB3      30.01R
$$

NEZ005>010-023>029-035>040-094-282000-
NORTH CENTRAL NEBRASKA

CITY           SKY/WX    TMP DP  RH WIND       PRES   REMARKS
VALENTINE      CLOUDY    43  35  73 N15       30.02F
BROKEN BOW     CLOUDY    45  39  79 NW12      30.00S
ORD            CLOUDY    46  39  76 NW10      29.99S
$$

NEZ041-046>049-061>064-073>077-083>087-282000-
SOUTH CENTRAL NEBRASKA

CITY           SKY/WX    TMP DP  RH WIND       PRES   REMARKS
GRAND ISLAND   CLOUDY    48  40  73 NW14      30.00S
AURORA         CLOUDY    49  43  80 NW13      29.99R
HASTINGS       CLOUDY    48  39  71 N10       30.00S
KEARNEY *      CLOUDY    48  37  66 N12G17    30.01S
YORK           CLOUDY    48  41  76 N9        29.99R
$$

NEZ011>018-030>034-042>045-282000-
NORTHEAST NEBRASKA

CITY           SKY/WX    TMP DP  RH WIND       PRES   REMARKS
NORFOLK        CLOUDY    46  38  73 NW13      29.98R
ALBION         CLOUDY    46  39  77 N10G17    29.99R
BLAIR          CLOUDY    48  43  82 W13       29.96R
COLUMBUS *     CLOUDY    48  36  61 NW15      29.99S
FREMONT        CLOUDY    49  42  77 NW12      29.98R
TEKAMAH        CLOUDY    48  42  80 NW15      29.96R
$$

NEZ050>053-065>068-078-088>093-282000-
SOUTHEAST NEBRASKA

CITY           SKY/WX    TMP DP  RH WIND       PRES   REMARKS
LINCOLN        CLOUDY    52  41  66 N10       29.99R
OMAHA EPPLEY   CLOUDY    50  43  77 NW10      29.96R
FALLS CITY     CLOUDY    53  45  74 W13       29.96R
$$

NEZ044-045-051>053-067-282000-
OMAHA AREA

CITY           SKY/WX    TMP DP  RH WIND       PRES   REMARKS
OMAHA EPPLEY   CLOUDY    50  43  77 NW10      29.96R
BLAIR          CLOUDY    48  43  82 W13       29.96R
FREMONT        CLOUDY    49  42  77 NW12      29.98R
OFFUTT AFB     CLOUDY    50  44  78 NW14      29.95S
$$



USA.gov is the U.S. government's official web portal to all federal, state and local government web resources and services.